Linden, WI

6:13 AM CDT on September 28, 2016 (GMT -0500)
Iowa County

Weather History for KMRJ - September, 2013

Change the Weather History Date:

Saturday, September 21, 2013

  Actual Average (KLNR) Record (KLNR)
Temperature  
Mean Temperature 57 °F -  
Max Temperature 64 °F 68 °F 89 °F (2005)
Min Temperature 50 °F 46 °F 35 °F (1999)
Degree Days  
Heating Degree Days 8    
Growing Degree Days 7 (Base 50)    
Moisture  
Dew Point 46 °F    
Average Humidity 72    
Maximum Humidity 94    
Minimum Humidity 45    
Precipitation  
Precipitation 0.00 in - - ()
Sea Level Pressure  
Sea Level Pressure 29.92 in    
Wind  
Wind Speed 6 mph (NW)    
Max Wind Speed 12 mph    
Max Gust Speed 21 mph    
Visibility 10 miles    
Events      
Averages and records for this station are not official NWS values.
T = Trace of Precipitation, MM = Missing Value Source: NWS Daily Summary

Daily Weather History Graph

Daily Weather History Graph

Search for Another Location

Airport or City:

Trip Planner

Search our weather history database for the weather conditions in past years. The results will help you decide how hot, cold, wet, or windy it might be!

Date:

Astronomy

Sep. 21, 2013 Rise Set
Actual Time 6:47 AM CDT 6:59 PM CDT
Civil Twilight 6:19 AM CDT 7:27 PM CDT
Nautical Twilight 5:45 AM CDT 8:00 PM CDT
Astronomical Twilight 5:11 AM CDT 8:34 PM CDT
Moon 8:05 PM CDT (9/21) 9:10 AM CDT (9/21)
Length of Visible Light 13h 08m
Length of Day
12h 12m
Waning Gibbous, 94% of the Moon is Illuminated
Sep 21
Waning Gibbous
Sep 26
Last Quarter
Oct 4
New
Oct 11
First Quarter
Oct 18
Full

Hourly Weather History & Observations

Time (CDT) Temp. Dew Point Humidity Pressure Visibility Wind Dir Wind Speed Gust Speed Precip Events Conditions
12:15 AM 53.6 °F 50.0 °F 88% 29.88 in 10.0 mi WNW 6.9 mph - N/A   Clear
12:35 AM 53.6 °F 50.0 °F 88% 29.88 in 10.0 mi WNW 5.8 mph - N/A   Clear
12:55 AM 53.6 °F 50.0 °F 88% 29.88 in 10.0 mi WNW 4.6 mph - N/A   Clear
1:15 AM 53.6 °F 50.0 °F 88% 29.88 in 10.0 mi WNW 5.8 mph - N/A   Clear
1:35 AM 53.6 °F 50.0 °F 88% 29.88 in 10.0 mi NW 4.6 mph - N/A   Clear
1:55 AM 53.6 °F 50.0 °F 88% 29.89 in 10.0 mi NW 3.5 mph - N/A   Mostly Cloudy
2:15 AM 53.6 °F 50.0 °F 88% 29.88 in 10.0 mi NW 3.5 mph - N/A   Mostly Cloudy
2:35 AM 51.8 °F 50.0 °F 94% 29.88 in 10.0 mi NW 4.6 mph - N/A   Scattered Clouds
2:55 AM 51.8 °F 48.2 °F 88% 29.88 in 10.0 mi WNW 4.6 mph - N/A   Clear
3:15 AM 51.8 °F 48.2 °F 88% 29.88 in 10.0 mi WNW 3.5 mph - N/A   Clear
3:35 AM 51.8 °F 48.2 °F 88% 29.88 in 10.0 mi WNW 5.8 mph - N/A   Clear
3:55 AM 51.8 °F 48.2 °F 88% 29.88 in 10.0 mi NW 4.6 mph - N/A   Clear
4:15 AM 51.8 °F 48.2 °F 88% 29.88 in 10.0 mi NW 3.5 mph - N/A   Clear
4:35 AM 50.0 °F 46.4 °F 87% 29.89 in 10.0 mi NW 3.5 mph - N/A   Clear
4:55 AM 50.0 °F 48.2 °F 94% 29.89 in 10.0 mi NW 3.5 mph - N/A   Clear
5:15 AM 50.0 °F 46.4 °F 87% 29.89 in 10.0 mi NW 3.5 mph - N/A   Clear
5:35 AM 50.0 °F 46.4 °F 87% 29.90 in 10.0 mi NW 3.5 mph - N/A   Clear
5:55 AM 50.0 °F 46.4 °F 87% 29.90 in 10.0 mi NW 3.5 mph - N/A   Clear
6:15 AM 50.0 °F 46.4 °F 87% 29.91 in 10.0 mi NW 4.6 mph - N/A   Clear
6:35 AM 50.0 °F 46.4 °F 87% 29.91 in 10.0 mi NW 3.5 mph - N/A   Clear
6:55 AM 50.0 °F 46.4 °F 87% 29.92 in 10.0 mi Calm Calm - N/A   Clear
7:15 AM 50.0 °F 46.4 °F 87% 29.92 in 10.0 mi Calm Calm - N/A   Clear
7:35 AM 50.0 °F 46.4 °F 87% 29.93 in 10.0 mi WNW 3.5 mph - N/A   Mostly Cloudy
7:55 AM 50.0 °F 48.2 °F 94% 29.93 in 10.0 mi WNW 3.5 mph - N/A   Overcast
8:15 AM 51.8 °F 50.0 °F 94% 29.93 in 10.0 mi NNW 9.2 mph - N/A   Overcast
8:35 AM 51.8 °F 50.0 °F 94% 29.93 in 10.0 mi NW 6.9 mph - N/A   Overcast
8:55 AM 53.6 °F 48.2 °F 82% 29.94 in 10.0 mi WNW 6.9 mph - N/A   Overcast
9:15 AM 53.6 °F 46.4 °F 77% 29.94 in 10.0 mi WNW 6.9 mph - N/A   Mostly Cloudy
9:35 AM 55.4 °F 46.4 °F 72% 29.94 in 10.0 mi WNW 6.9 mph - N/A   Mostly Cloudy
9:55 AM 55.4 °F 46.4 °F 72% 29.94 in 10.0 mi WNW 9.2 mph - N/A   Mostly Cloudy
10:15 AM 55.4 °F 46.4 °F 72% 29.94 in 10.0 mi WNW 6.9 mph - N/A   Mostly Cloudy
10:35 AM 59.0 °F 44.6 °F 59% 29.94 in 10.0 mi WNW 9.2 mph - N/A   Mostly Cloudy
10:55 AM 55.4 °F 42.8 °F 63% 29.94 in 10.0 mi NW 8.1 mph 16.1 mph N/A   Mostly Cloudy
11:15 AM 57.2 °F 44.6 °F 63% 29.95 in 10.0 mi NW 8.1 mph - N/A   Overcast
11:35 AM 57.2 °F 44.6 °F 63% 29.95 in 10.0 mi WNW 8.1 mph 17.3 mph N/A   Overcast
11:55 AM 59.0 °F 42.8 °F 55% 29.95 in 10.0 mi NW 10.4 mph 17.3 mph N/A   Overcast
12:15 PM 59.0 °F 42.8 °F 55% 29.95 in 10.0 mi NNW 11.5 mph 20.7 mph N/A   Overcast
12:35 PM 59.0 °F 44.6 °F 59% 29.95 in 10.0 mi WNW 8.1 mph - N/A   Overcast
12:55 PM 60.8 °F 42.8 °F 52% 29.95 in 10.0 mi WNW 8.1 mph - N/A   Mostly Cloudy
1:15 PM 59.0 °F 42.8 °F 55% 29.94 in 10.0 mi NW 9.2 mph - N/A   Overcast
1:35 PM 62.6 °F 42.8 °F 48% 29.94 in 10.0 mi NW 9.2 mph - N/A   Scattered Clouds
1:55 PM 60.8 °F 42.8 °F 52% 29.94 in 10.0 mi NW 8.1 mph - N/A   Scattered Clouds
2:15 PM 62.6 °F 42.8 °F 48% 29.94 in 10.0 mi NNW 8.1 mph - N/A   Mostly Cloudy
2:35 PM 60.8 °F 42.8 °F 52% 29.94 in 10.0 mi NNW 8.1 mph - N/A   Mostly Cloudy
2:55 PM 62.6 °F 42.8 °F 48% 29.93 in 10.0 mi NW 6.9 mph - N/A   Scattered Clouds
3:15 PM 62.6 °F 42.8 °F 48% 29.93 in 10.0 mi NNW 10.4 mph - N/A   Scattered Clouds
3:35 PM 64.4 °F 42.8 °F 45% 29.92 in 10.0 mi West 11.5 mph - N/A   Scattered Clouds
3:55 PM 64.4 °F 42.8 °F 45% 29.92 in 10.0 mi West 9.2 mph - N/A   Scattered Clouds
4:15 PM 64.4 °F 42.8 °F 45% 29.91 in 10.0 mi NW 8.1 mph 16.1 mph N/A   Scattered Clouds
4:35 PM 62.6 °F 42.8 °F 48% 29.91 in 10.0 mi NW 6.9 mph - N/A   Clear
4:55 PM 62.6 °F 42.8 °F 48% 29.91 in 10.0 mi NW 6.9 mph - N/A   Clear
5:15 PM 62.6 °F 42.8 °F 48% 29.91 in 10.0 mi NW 6.9 mph - N/A   Clear
5:35 PM 62.6 °F 42.8 °F 48% 29.92 in 10.0 mi NW 5.8 mph - N/A   Scattered Clouds
5:55 PM 60.8 °F 42.8 °F 52% 29.92 in 10.0 mi NNW 8.1 mph - N/A   Scattered Clouds
6:15 PM 60.8 °F 44.6 °F 55% 29.92 in 10.0 mi NW 8.1 mph - N/A   Clear
6:35 PM 59.0 °F 44.6 °F 59% 29.92 in 10.0 mi NNW 4.6 mph - N/A   Clear
6:55 PM 57.2 °F 44.6 °F 63% 29.92 in 10.0 mi NNW 4.6 mph - N/A   Clear
7:15 PM 55.4 °F 44.6 °F 67% 29.92 in 10.0 mi North 4.6 mph - N/A   Clear
7:35 PM 53.6 °F 44.6 °F 72% 29.92 in 10.0 mi North 3.5 mph - N/A   Clear
7:55 PM 55.4 °F 44.6 °F 67% 29.93 in 10.0 mi North 4.6 mph - N/A   Clear
8:15 PM 55.4 °F 44.6 °F 67% 29.94 in 10.0 mi NNE 3.5 mph - N/A   Clear
8:35 PM 55.4 °F 44.6 °F 67% 29.94 in 10.0 mi NNE 4.6 mph - N/A   Clear
8:55 PM 53.6 °F 44.6 °F 72% 29.94 in 10.0 mi NE 4.6 mph - N/A   Clear
9:15 PM 55.4 °F 44.6 °F 67% 29.94 in 10.0 mi NNE 4.6 mph - N/A   Clear
9:35 PM 53.6 °F 44.6 °F 72% 29.95 in 10.0 mi NE 5.8 mph - N/A   Clear
9:55 PM 53.6 °F 44.6 °F 72% 29.95 in 10.0 mi NE 4.6 mph - N/A   Clear
10:15 PM 53.6 °F 44.6 °F 72% 29.95 in 10.0 mi NE 4.6 mph - N/A   Clear
10:35 PM 50.0 °F 44.6 °F 82% 29.96 in 10.0 mi Calm Calm - N/A   Clear
10:55 PM 50.0 °F 44.6 °F 82% 29.96 in 10.0 mi Calm Calm - N/A   Clear
11:15 PM 53.6 °F 44.6 °F 72% 29.96 in 10.0 mi Calm Calm - N/A   Clear
11:35 PM 51.8 °F 44.6 °F 76% 29.96 in 10.0 mi Calm Calm - N/A   Clear
11:55 PM 50.0 °F 44.6 °F 82% 29.96 in 10.0 mi Calm Calm - N/A   Clear